This demonstration page uses our WeatherBlox Daily Observations layout. Learn more.

Left ArrowRight Arrow

36.17497, -115.13722

Hourly Observations for July 26, 2020

Temp ( °F °C ) Dew Point ( °F °C ) Humidity (%) Winds ( mph kmh ) Pressure ( in mb ) Visibility ( mi km ) Precip ( " mm )
12:53 am 00:53 Clear 87 30.6 28 -2.2 12 12 WNW 5 7 29.84 1011 10 16 0.00 0.00
1:53 am 01:53 Clear 86 30 29 -1.7 13 13 WNW 7 11 29.84 1011 10 16 0.00 0.00
2:53 am 02:53 Clear 83 28.3 29 -1.7 14 14 NW 5 7 29.85 1011 10 16 0.00 0.00
3:53 am 03:53 Clear 83 28.3 28 -2.2 13 13 Calm 29.86 1011 10 16 0.00 0.00
4:53 am 04:53 Clear 81 27.2 34 1.1 18 18 Calm 29.87 1012 10 16 0.00 0.00
5:53 am 05:53 Sunny 79 26.1 32 0 18 18 NNW 5 7 29.88 1012 10 16 0.00 0.00
6:53 am 06:53 Sunny 83 28.3 32 0 16 16 WNW 5 7 29.90 1013 10 16 0.00 0.00
7:53 am 07:53 Sunny 84 28.9 36 2.2 18 18 NNW 5 7 29.92 1013 10 16 0.00 0.00
8:53 am 08:53 Sunny 91 32.8 30 -1.1 11 11 NNW 5 7 29.92 1013 10 16 0.00 0.00
9:53 am 09:53 Sunny 94 34.4 30 -1.1 10 10 VRB 5 7 29.93 1014 10 16 0.00 0.00
10:53 am 10:53 Sunny 97 36.1 30 -1.1 9 9 VRB 5 7 29.93 1014 10 16 0.00 0.00
11:53 am 11:53 Sunny 102 38.9 31 -0.6 8 8 undefined N/A 29.91 1013 10 16 0.00 0.00
12:53 pm 12:53 Sunny 101 38.3 35 1.7 10 10 VRB 6 9 29.90 1012 10 16 0.00 0.00
1:53 pm 13:53 Sunny 104 40 36 2.2 9 9 S 7 11 29.88 1012 10 16 0.00 0.00
2:53 pm 14:53 Sunny 103 39.4 37 2.8 10 10 Calm 29.86 1011 10 16 0.00 0.00
3:53 pm 15:53 Sunny 103 39.4 36 2.2 10 10 Calm 29.84 1011 10 16 0.00 0.00
4:53 pm 16:53 Sunny 104 40 38 3.3 10 10 S 7 11 29.82 1010 10 16 0.00 0.00
5:53 pm 17:53 Sunny 103 39.4 39 3.9 11 11 SSE 5 7 29.80 1009 10 16 0.00 0.00
6:53 pm 18:53 Sunny 102 38.9 39 3.9 11 11 SW 5 7 29.79 1009 10 16 0.00 0.00
7:53 pm 19:53 Clear 101 38.3 40 4.4 12 12 SSW 5 7 29.79 1009 10 16 0.00 0.00
8:53 pm 20:53 Clear 100 37.8 42 5.6 14 14 W 3 6 29.79 1009 10 16 0.00 0.00
9:53 pm 21:53 Clear 97 36.1 44 6.7 16 16 WSW 5 7 29.81 1009 10 16 0.00 0.00
10:53 pm 22:53 Clear 93 33.9 43 6.1 18 18 NW 6 9 29.81 1010 10 16 0.00 0.00
11:53 pm 23:53 Clear 92 33.3 41 5 17 17 Calm 29.81 1009 10 16 0.00 0.00

Powered by AerisWeather